Regional Weather Roundup
Issued by NWS

Home | Current Version | Previous Version | Text Only | Print | Product List | Glossary On
Versions: 1 2 3 4 5 6 7 8 9 10 11 12 13 14 15 16 17 18 19 20 21 22 23 24 25 26 27 28
000
ASCA42 TJSJ 191710
RWRPR
PUERTO RICO/U.S. VIRGIN ISLANDS HOURLY WEATHER ROUNDUP
NATIONAL WEATHER SERVICE SAN JUAN PR
100 PM AST SAT AUG 19 2017

PRZ001>002-007>008-010-191800-
PUERTO RICO

CITY           SKY/WX    TMP DP  RH WIND       PRES   REMARKS
SAN JUAN LMM   MOSUNNY   88  79  74 E21       29.91F HX 102
AGUADILLA      PTSUNNY   88  77  70 E15G28    29.92F HX 100
CEIBA          PTSUNNY   88  81  79 NE12      29.93S HX 105
$$

VIZ001>002-191800-
U.S. VIRGIN ISLANDS

CITY           SKY/WX    TMP DP  RH WIND       PRES   REMARKS
CHARLOTTE AMA  MOSUNNY   88  81  79 E14       29.90S HX 105
CHRISTIANSTED  SUNNY     90  73  58 E13G22    29.91S HX  98
$$

HOURLY WEATHER ROUNDUP FOR THE NEWS MEDIA

CITY           SKY/WX    TMP DP  RH WIND       PRES   REMARKS
ORLANDO        SUNNY     91  71  51 W8        30.01F HX  97
NEW YORK       PTSUNNY   85  70  60 SW14      29.87S
NEWARK         MOSUNNY   87  62  43 W8        29.86S
CHICAGO        MOSUNNY   80  56  43 VRB6      29.96F
HARTFORD       PTSUNNY   86  73  65 S5        29.79F HX  93
BOSTON         PTSUNNY   73  67  81 E9        29.80F
DALLAS         MOSUNNY   93  71  48 SW8       30.00S HX 100
PHILADELPHIA   MOSUNNY   85  62  46 NW8       29.90S
LOS ANGELES    MOSUNNY   70  61  73 SW5       29.98S
WASHINGTON DC  MOSUNNY   85  68  56 NW8       29.94S



USA.gov is the U.S. government's official web portal to all federal, state and local government web resources and services.